Regional Weather Roundup
Issued by NWS

Home | Current Version | Previous Version | Text Only | Print | Product List | Glossary Off
Versions: 1 2 3 4 5 6 7 8 9 10 11 12 13 14 15 16 17 18 19 20 21 22 23 24 25 26 27 28 29 30 31 32 33 34 35 36 37 38 39 40 41 42 43 44 45 46 47 48 49 50

000
ASUS43 KLMK 130102
RWRKY
KENTUCKY REGIONAL WEATHER ROUNDUP
NATIONAL WEATHER SERVICE LOUISVILLE KY
900 PM EDT SAT JUL 12 2014

NOTE "FAIR" INDICATES FEW OR NO CLOUDS BELOW 12,000 FEET
WITH NO SIGNIFICANT WEATHER AND/OR OBSTRUCTIONS TO VISIBILITY.

KYZ001>023-026-027-061>063-070>075-130200-
WESTERN AND SOUTH CENTRAL KENTUCKY

CITY           SKY/WX    TMP DP  RH WIND       PRES   REMARKS
PADUCAH        PTCLDY    86  74  67 S3        30.05F HX  94
HENDERSON      PTCLDY    81  72  74 S6        30.04F
OWENSBORO      PTCLDY    81  74  79 SW5       30.06S
HOPKINSVILLE   NOT AVBL
BOWLING GREEN  MOCLDY    84  68  58 CALM      30.08S
GLASGOW        NOT AVBL
$$

KYZ024-025-028>034-038-045-046-053-130200-
NORTH CENTRAL KENTUCKY

CITY           SKY/WX    TMP DP  RH WIND       PRES   REMARKS
LOUISVILLE/SDF MOCLDY    84  67  56 SW7       30.06F
LOUISVILLE/LOU MOCLDY    84  67  56 SW7       30.06F
FORT KNOX      NOT AVBL
$$

KYZ035>037-039>044-047>052-055>060-089>105-130200-
NORTHEAST KENTUCKY

CITY           SKY/WX    TMP DP  RH WIND       PRES   REMARKS
LEXINGTON      MOCLDY    82  66  58 SW3       30.10S
COVINGTON      MOCLDY    79  67  66 SW5       30.06F
FRANKFORT      PTCLDY    80  69  69 SW3       30.07F
$$

KYZ054-064>069-076>088-106>120-130200-
SOUTHEAST KENTUCKY

CITY           SKY/WX    TMP DP  RH WIND       PRES   REMARKS
JACKSON        PTCLDY    81  58  45 CALM      30.13R
LONDON         PTCLDY    83  61  47 S5        30.13R
SOMERSET       MOCLDY    81  61  50 CALM      30.12S
MIDDLESBORO    MOCLDY    77  67  70 CALM      30.14R
MONTICELLO     PTCLDY    76  71  84 CALM      30.13S
$$



USA.gov is the U.S. government's official web portal to all federal, state and local government web resources and services.